Location: Atlantic Beach
(40.5890°N, 73.7290°W)
Time: 08:13:16
(UTC+00:00)

Envisat - Pass Details

Date: 30 January 2021
Orbit: 764 x 766 km, 98.1° (Epoch: 24 February)

Event Time Altitude Azimuth Distance (km) Brightness Sun altitude
Rises 22:43:51 0° 197° (SSW) 3,218 6.7 -6.7°
Reaches altitude 10° 22:46:30 10° 210° (SSW) 2,296 6.2 -7.2°
Maximum altitude 22:50:41 26° 266° (W) 1,485 5.6 -8.0°
Drops below altitude 10° 22:54:53 10° 322° (NW) 2,309 5.8 -8.7°
Sets 22:57:35 0° 335° (NNW) 3,240 6.4 -9.2°
